NOO7228 SKMR-SKRG

Flight info

Callsign NOO7228
Flight time 0h 36m
Altitude 25000
Route AKPEK2E AKPEK AKPEK4C
Aircraft A20N/M-SDE2E3FGHIRWXY/LB1

Departure

Time 2026-05-06 18:54
Airport Los Garzones Airport (SKMR)

Arrival

Time 2026-05-06 19:30
Airport Jose Maria Córdova International Airport (SKRG)
Time Latitude Longitude Altitude Speed Heading
2026-05-06 18:38 8.82466 -75.82556 55 ft 0 kts 135°
2026-05-06 18:39 8.82471 -75.82561 55 ft 1 kts 139°
2026-05-06 18:39 8.82472 -75.82561 55 ft 0 kts 139°
2026-05-06 18:48 8.82471 -75.82561 55 ft 0 kts 139°
2026-05-06 18:48 8.82456 -75.82546 55 ft 5 kts 137°
2026-05-06 18:49 8.82422 -75.82516 55 ft 7 kts 138°
2026-05-06 18:49 8.82381 -75.82478 55 ft 8 kts 137°
2026-05-06 18:49 8.82325 -75.82457 55 ft 9 kts 177°
2026-05-06 18:49 8.82254 -75.82459 55 ft 10 kts 182°
2026-05-06 18:50 8.82187 -75.82428 55 ft 11 kts 137°
2026-05-06 18:50 8.82126 -75.82372 55 ft 12 kts 138°
2026-05-06 18:50 8.82061 -75.82313 55 ft 12 kts 137°
2026-05-06 18:50 8.81993 -75.82251 55 ft 13 kts 137°
2026-05-06 18:51 8.81923 -75.82187 55 ft 13 kts 137°
2026-05-06 18:51 8.81851 -75.82121 55 ft 14 kts 138°
2026-05-06 18:51 8.81776 -75.82053 55 ft 14 kts 138°
2026-05-06 18:51 8.81700 -75.81983 55 ft 14 kts 137°
2026-05-06 18:52 8.81628 -75.81917 55 ft 10 kts 137°
2026-05-06 18:52 8.81585 -75.81863 55 ft 9 kts 174°
2026-05-06 18:52 8.81601 -75.81894 55 ft 8 kts 326°
2026-05-06 18:52 8.81618 -75.81908 55 ft 0 kts 317°
2026-05-06 18:53 8.81655 -75.81942 55 ft 34 kts 317°
2026-05-06 18:53 8.82032 -75.82286 55 ft 107 kts 317°
2026-05-06 18:53 8.82734 -75.82927 91 ft 158 kts 317°
2026-05-06 18:53 8.83544 -75.83687 598 ft 162 kts 317°
2026-05-06 18:54 8.84374 -75.84463 1196 ft 161 kts 313°
2026-05-06 18:54 8.84806 -75.85461 1542 ft 169 kts 272°
2026-05-06 18:55 8.84418 -75.86580 1852 ft 183 kts 239°
2026-05-06 18:55 8.83761 -75.87725 2195 ft 194 kts 246°
2026-05-06 18:56 8.83216 -75.88970 2704 ft 197 kts 250°
2026-05-06 18:56 8.82727 -75.90279 3279 ft 198 kts 252°
2026-05-06 18:56 8.82269 -75.91608 3822 ft 202 kts 252°
2026-05-06 18:56 8.81823 -75.92947 4368 ft 206 kts 252°
2026-05-06 18:57 8.81200 -75.94254 4898 ft 209 kts 226°
2026-05-06 18:57 8.79950 -75.94965 5394 ft 211 kts 188°
2026-05-06 18:57 8.78464 -75.94885 5741 ft 222 kts 167°
2026-05-06 18:57 8.76872 -75.94585 6065 ft 240 kts 167°
2026-05-06 18:58 8.75144 -75.94266 6363 ft 262 kts 167°
2026-05-06 18:58 8.73280 -75.93936 6783 ft 279 kts 168°
2026-05-06 18:58 8.71331 -75.93604 7397 ft 286 kts 168°
2026-05-06 18:58 8.69348 -75.93274 8121 ft 289 kts 168°
2026-05-06 18:59 8.67351 -75.92944 8823 ft 291 kts 168°
2026-05-06 18:59 8.65350 -75.92614 9521 ft 294 kts 168°
2026-05-06 18:59 8.63328 -75.92281 10199 ft 296 kts 167°
2026-05-06 18:59 8.61257 -75.91937 10649 ft 308 kts 167°
2026-05-06 19:00 8.59081 -75.91576 10932 ft 324 kts 168°
2026-05-06 19:00 8.56780 -75.91196 11211 ft 340 kts 168°
2026-05-06 19:00 8.54355 -75.90796 11477 ft 356 kts 168°
2026-05-06 19:00 8.52718 -75.90527 11642 ft 365 kts 168°
2026-05-06 19:01 8.49286 -75.89967 12222 ft 375 kts 168°
2026-05-06 19:01 8.46695 -75.89543 12792 ft 378 kts 168°
2026-05-06 19:01 8.44082 -75.89114 13341 ft 381 kts 168°
2026-05-06 19:01 8.41434 -75.88680 13875 ft 384 kts 168°
2026-05-06 19:02 8.38793 -75.88245 14391 ft 387 kts 168°
2026-05-06 19:02 8.36103 -75.87801 14899 ft 391 kts 168°
2026-05-06 19:02 8.33395 -75.87356 15389 ft 394 kts 168°
2026-05-06 19:02 8.30653 -75.86905 15877 ft 398 kts 167°
2026-05-06 19:03 8.27924 -75.86457 16341 ft 401 kts 167°
2026-05-06 19:03 8.25123 -75.85997 16803 ft 405 kts 167°
2026-05-06 19:03 8.22336 -75.85538 17273 ft 408 kts 167°
2026-05-06 19:03 8.19512 -75.85072 17742 ft 411 kts 167°
2026-05-06 19:04 8.16663 -75.84601 18202 ft 414 kts 168°
2026-05-06 19:04 8.13772 -75.84125 18662 ft 417 kts 168°
2026-05-06 19:04 8.10901 -75.83651 19102 ft 420 kts 168°
2026-05-06 19:04 8.07999 -75.83172 19523 ft 423 kts 168°
2026-05-06 19:05 8.05076 -75.82690 19947 ft 425 kts 168°
2026-05-06 19:05 8.02131 -75.82206 20366 ft 428 kts 168°
2026-05-06 19:05 7.99185 -75.81722 20765 ft 431 kts 168°
2026-05-06 19:05 7.96202 -75.81220 21148 ft 433 kts 168°
2026-05-06 19:06 7.93219 -75.80704 21527 ft 436 kts 168°
2026-05-06 19:06 7.90192 -75.80175 21899 ft 439 kts 168°
2026-05-06 19:06 7.87173 -75.79648 22264 ft 441 kts 169°
2026-05-06 19:06 7.84139 -75.79120 22640 ft 444 kts 168°
2026-05-06 19:07 7.81077 -75.78587 23007 ft 446 kts 169°
2026-05-06 19:07 7.77989 -75.78050 23365 ft 449 kts 168°
2026-05-06 19:07 7.74886 -75.77509 23719 ft 451 kts 169°
2026-05-06 19:07 7.71767 -75.76966 24068 ft 453 kts 169°
2026-05-06 19:08 7.68615 -75.76417 24414 ft 455 kts 169°
2026-05-06 19:08 7.65515 -75.75877 24750 ft 457 kts 169°
2026-05-06 19:08 7.62338 -75.75324 24956 ft 459 kts 169°
2026-05-06 19:08 7.59176 -75.74773 24984 ft 458 kts 169°
2026-05-06 19:09 7.56027 -75.74226 25010 ft 458 kts 169°
2026-05-06 19:09 7.52878 -75.73677 25028 ft 458 kts 169°
2026-05-06 19:09 7.49716 -75.73126 25040 ft 458 kts 169°
2026-05-06 19:09 7.46548 -75.72576 25050 ft 458 kts 169°
2026-05-06 19:10 7.43389 -75.72026 25060 ft 458 kts 169°
2026-05-06 19:10 7.40224 -75.71475 25067 ft 458 kts 169°
2026-05-06 19:10 7.37059 -75.70924 25079 ft 458 kts 169°
2026-05-06 19:10 7.33919 -75.70377 25093 ft 458 kts 169°
2026-05-06 19:11 7.30760 -75.69828 25104 ft 458 kts 169°
2026-05-06 19:11 7.27619 -75.69282 25113 ft 457 kts 169°
2026-05-06 19:11 7.24477 -75.68735 25120 ft 458 kts 169°
2026-05-06 19:11 7.21277 -75.68179 25130 ft 468 kts 169°
2026-05-06 19:12 7.18024 -75.67612 25133 ft 477 kts 169°
2026-05-06 19:12 7.14708 -75.67036 25147 ft 485 kts 169°
2026-05-06 19:12 7.11331 -75.66449 25168 ft 492 kts 169°
2026-05-06 19:12 7.07933 -75.65858 25190 ft 497 kts 169°
2026-05-06 19:13 7.04497 -75.65260 25210 ft 498 kts 169°
2026-05-06 19:13 7.01093 -75.64669 25220 ft 499 kts 169°
2026-05-06 19:13 6.97616 -75.64064 25228 ft 499 kts 169°
2026-05-06 19:13 6.94181 -75.63466 25244 ft 499 kts 169°
2026-05-06 19:14 6.90711 -75.62861 25258 ft 499 kts 169°
2026-05-06 19:14 6.87301 -75.62266 25277 ft 498 kts 169°
2026-05-06 19:14 6.83848 -75.61666 25299 ft 498 kts 169°
2026-05-06 19:14 6.80449 -75.61076 25315 ft 497 kts 169°
2026-05-06 19:15 6.77021 -75.60493 25183 ft 487 kts 169°
2026-05-06 19:15 6.73747 -75.59942 24946 ft 471 kts 169°
2026-05-06 19:15 6.70514 -75.59397 24701 ft 456 kts 169°
2026-05-06 19:15 6.67439 -75.58875 24415 ft 449 kts 169°
2026-05-06 19:16 6.64354 -75.58350 24058 ft 447 kts 169°
2026-05-06 19:16 6.61249 -75.57822 23598 ft 444 kts 169°
2026-05-06 19:16 6.58203 -75.57302 23093 ft 441 kts 169°
2026-05-06 19:16 6.55200 -75.56789 22556 ft 438 kts 169°
2026-05-06 19:17 6.52175 -75.56274 22010 ft 435 kts 169°
2026-05-06 19:17 6.49211 -75.55768 21471 ft 432 kts 169°
2026-05-06 19:17 6.46221 -75.55260 20947 ft 429 kts 168°
2026-05-06 19:17 6.43302 -75.54764 20410 ft 427 kts 169°
2026-05-06 19:18 6.40355 -75.54356 19872 ft 424 kts 172°
2026-05-06 19:18 6.37404 -75.54131 19298 ft 422 kts 175°
2026-05-06 19:18 6.34445 -75.54054 18787 ft 419 kts 176°
2026-05-06 19:18 6.31561 -75.54003 18260 ft 416 kts 176°
2026-05-06 19:19 6.28643 -75.53955 17712 ft 413 kts 176°
2026-05-06 19:19 6.25762 -75.53906 17164 ft 411 kts 176°
2026-05-06 19:19 6.22909 -75.53854 16614 ft 408 kts 176°
2026-05-06 19:19 6.20057 -75.53800 16066 ft 406 kts 176°
2026-05-06 19:20 6.17220 -75.53750 15524 ft 402 kts 176°
2026-05-06 19:20 6.14424 -75.53700 14986 ft 399 kts 176°
2026-05-06 19:20 6.11659 -75.53658 14612 ft 390 kts 177°
2026-05-06 19:20 6.08951 -75.53677 14370 ft 378 kts 177°
2026-05-06 19:21 6.06360 -75.53712 14189 ft 365 kts 178°
2026-05-06 19:21 6.03855 -75.53742 14034 ft 352 kts 177°
2026-05-06 19:21 6.01426 -75.53768 13789 ft 342 kts 177°
2026-05-06 19:21 5.99084 -75.53792 13627 ft 320 kts 176°
2026-05-06 19:22 5.96948 -75.53814 13533 ft 298 kts 176°
2026-05-06 19:22 5.94879 -75.53831 13390 ft 288 kts 176°
2026-05-06 19:22 5.92913 -75.53845 13068 ft 283 kts 176°
2026-05-06 19:22 5.90953 -75.53854 12940 ft 271 kts 174°
2026-05-06 19:23 5.89178 -75.53429 12910 ft 252 kts 143°
2026-05-06 19:23 5.87971 -75.52253 12945 ft 244 kts 117°
2026-05-06 19:23 5.87436 -75.50633 12952 ft 246 kts 93°
2026-05-06 19:23 5.87434 -75.48916 12671 ft 248 kts 89°
2026-05-06 19:24 5.87474 -75.47156 12319 ft 249 kts 89°
2026-05-06 19:24 5.87503 -75.45442 12089 ft 243 kts 89°
2026-05-06 19:24 5.87671 -75.43798 12000 ft 232 kts 69°
2026-05-06 19:24 5.88670 -75.42559 11864 ft 230 kts 34°
2026-05-06 19:25 5.90183 -75.42097 11595 ft 229 kts 10°
2026-05-06 19:25 5.91810 -75.42052 11171 ft 232 kts
2026-05-06 19:25 5.93380 -75.42104 10863 ft 218 kts
2026-05-06 19:25 5.94852 -75.42148 10591 ft 205 kts
2026-05-06 19:26 5.96231 -75.42175 10346 ft 189 kts
2026-05-06 19:26 5.97513 -75.42190 10077 ft 174 kts
2026-05-06 19:26 5.98680 -75.42199 9851 ft 164 kts
2026-05-06 19:26 5.99824 -75.42203 9665 ft 164 kts
2026-05-06 19:27 6.00981 -75.42210 9458 ft 164 kts
2026-05-06 19:27 6.02125 -75.42217 9263 ft 164 kts
2026-05-06 19:27 6.03268 -75.42223 9067 ft 163 kts
2026-05-06 19:27 6.04413 -75.42232 8860 ft 162 kts
2026-05-06 19:28 6.05543 -75.42239 8650 ft 161 kts
2026-05-06 19:28 6.06666 -75.42247 8447 ft 160 kts
2026-05-06 19:28 6.07789 -75.42255 8243 ft 160 kts
2026-05-06 19:28 6.08918 -75.42261 8038 ft 159 kts
2026-05-06 19:29 6.10021 -75.42269 7845 ft 158 kts
2026-05-06 19:29 6.11141 -75.42276 7655 ft 158 kts
2026-05-06 19:29 6.12241 -75.42284 7467 ft 158 kts
2026-05-06 19:29 6.13343 -75.42303 7273 ft 157 kts 359°
2026-05-06 19:30 6.14436 -75.42305 7063 ft 156 kts
2026-05-06 19:30 6.15524 -75.42303 6958 ft 146 kts 359°
2026-05-06 19:30 6.16378 -75.42312 6969 ft 98 kts 360°
2026-05-06 19:30 6.16892 -75.42313 6980 ft 48 kts 359°
2026-05-06 19:31 6.17131 -75.42316 6985 ft 29 kts 359°
2026-05-06 19:31 6.17321 -75.42317 6988 ft 25 kts 359°
2026-05-06 19:31 6.17558 -75.42326 6991 ft 6 kts 322°
2026-05-06 19:32 6.17567 -75.42372 6991 ft 7 kts 270°
2026-05-06 19:32 6.17567 -75.42424 6991 ft 7 kts 270°
2026-05-06 19:32 6.17564 -75.42480 6992 ft 8 kts 252°
2026-05-06 19:32 6.17521 -75.42520 6992 ft 9 kts 212°
2026-05-06 19:33 6.17465 -75.42557 6991 ft 10 kts 213°
2026-05-06 19:33 6.17403 -75.42600 6991 ft 11 kts 214°
2026-05-06 19:33 6.17325 -75.42619 6990 ft 11 kts 180°
2026-05-06 19:33 6.17260 -75.42619 6989 ft 8 kts 180°
2026-05-06 19:34 6.17191 -75.42620 6988 ft 10 kts 180°
2026-05-06 19:34 6.17112 -75.42615 6987 ft 9 kts 176°
2026-05-06 19:34 6.17044 -75.42640 6987 ft 11 kts 211°
2026-05-06 19:34 6.16979 -75.42689 6986 ft 12 kts 221°
2026-05-06 19:35 6.16930 -75.42753 6986 ft 5 kts 243°
2026-05-06 19:35 6.16925 -75.42780 6986 ft 4 kts 299°
2026-05-06 19:35 6.16948 -75.42795 6987 ft 2 kts 339°
2026-05-06 19:35 6.16958 -75.42799 6987 ft 0 kts 341°
2026-05-06 19:36 6.16959 -75.42799 6987 ft 0 kts 341°
2026-05-06 19:36 6.16965 -75.42801 6987 ft 1 kts 341°
2026-05-06 19:36 6.16966 -75.42801 6988 ft 0 kts 341°